Location: Stilling
(56.0622°N, 9.9882°E)
Time: 23:39:27
(UTC+00:00)

Cosmos 494 Rocket - Pass Details

Date: 13 July 2020
Orbit: 743 x 770 km, 74.1° (Epoch: 14 August)

Event Time Altitude Azimuth Distance (km) Brightness Sun altitude
Exits shadow 22:40:26 15° 185° (S) 1,945 5.5 -11.7°
Maximum altitude 22:44:35 56° 111° (ESE) 890 4.2 -11.8°
Drops below altitude 10° 22:49:37 10° 34° (NE) 2,275 7.2 -11.9°
Sets 22:52:00 0° 30° (NNE) 3,201 8.1 -12.0°
